Location: Borea
(45.6167°N, 23.0167°E)
Time: 12:01:45
(UTC+00:00)

Cosmos 1745 Rocket - Pass Details

Date: 03 February 2023
Orbit: 951 x 999 km, 83.0° (Epoch: 20 March)

Event Time Altitude Azimuth Distance (km) Brightness Sun altitude
Rises 17:29:28 0° 352° (N) 3,697 7.1 -19.9°
Reaches altitude 10° 17:32:01 10° 355° (N) 2,738 6.4 -20.4°
Maximum altitude 17:38:17 74° 80° (E) 1,010 3.8 -21.5°
Drops below altitude 10° 17:44:26 10° 166° (SSE) 2,688 6.2 -22.6°
Sets 17:46:55 0° 168° (SSE) 3,624 6.9 -23.0°
